Weather History for KADG - September, 2013

Change the Weather History Date:

Thursday, September 5, 2013

  Actual Average Record
Temperature  
Mean Temperature 63 °F -  
Max Temperature 72 °F 78 °F 99 °F (1954)
Min Temperature 55 °F 53 °F 41 °F (1984)
Degree Days  
Heating Degree Days 2    
Growing Degree Days 13 (Base 50)    
Moisture  
Dew Point 49 °F    
Average Humidity 64    
Maximum Humidity 93    
Minimum Humidity 34    
Precipitation  
Precipitation 0.00 in - - ()
Sea Level Pressure  
Sea Level Pressure 30.22 in    
Wind  
Wind Speed 7 mph (NNE)    
Max Wind Speed 12 mph    
Max Gust Speed -    
Visibility 10 miles    
Events      
Averages and records for this station are not official NWS values.
T = Trace of Precipitation, MM = Missing Value Source: NWS Daily Summary

Daily Weather History Graph

Daily Weather History Graph

Search for Another Location

Airport or City:

Trip Planner

Search our weather history database for the weather conditions in past years. The results will help you decide how hot, cold, wet, or windy it might be!

Date:

Astronomy

Sep. 05, 2013 Rise Set
Actual Time 7:06 AM EDT 8:02 PM EDT
Civil Twilight 6:38 AM EDT 8:30 PM EDT
Nautical Twilight 6:04 AM EDT 9:04 PM EDT
Astronomical Twilight 5:28 AM EDT 9:39 PM EDT
Moon 7:18 AM EDT (9/5) 7:52 PM EDT (9/5)
Length of Visible Light 13h 52m
Length of Day
12h 56m
New Moon, 0% of the Moon is Illuminated
Sep 5
New Moon
Sep 12
First Quarter
Sep 19
Full
Sep 26
Last Quarter
Oct 4
New

Hourly Weather History & Observations

Time (EDT) Temp. Dew Point Humidity Pressure Visibility Wind Dir Wind Speed Gust Speed Precip Events Conditions
12:53 AM 63.0 °F 57.0 °F 81% 30.12 in 10.0 mi WNW 5.8 mph - N/A   Clear
1:53 AM 61.0 °F 57.0 °F 87% 30.12 in 10.0 mi WNW 3.5 mph - N/A   Clear
2:53 AM 63.0 °F 59.0 °F 87% 30.12 in 10.0 mi North 3.5 mph - N/A   Mostly Cloudy
3:53 AM 62.1 °F 59.0 °F 90% 30.14 in 10.0 mi North 4.6 mph - N/A   Scattered Clouds
4:53 AM 60.1 °F 57.9 °F 93% 30.15 in 10.0 mi North 6.9 mph - N/A   Clear
5:53 AM 59.0 °F 55.0 °F 87% 30.17 in 10.0 mi NNE 9.2 mph - N/A   Mostly Cloudy
6:53 AM 57.0 °F 53.1 °F 87% 30.19 in 10.0 mi NNE 10.4 mph - N/A   Scattered Clouds
7:53 AM 55.0 °F 50.0 °F 83% 30.22 in 10.0 mi NNE 11.5 mph - N/A   Clear
8:53 AM 57.9 °F 50.0 °F 75% 30.24 in 10.0 mi NNE 9.2 mph - N/A   Clear
9:53 AM 61.0 °F 50.0 °F 67% 30.25 in 10.0 mi NNE 8.1 mph - N/A   Clear
10:53 AM 64.0 °F 44.1 °F 48% 30.26 in 10.0 mi North 6.9 mph - N/A   Clear
11:53 AM 66.0 °F 46.0 °F 48% 30.26 in 10.0 mi NE 6.9 mph - N/A   Clear
12:53 PM 68.0 °F 39.0 °F 35% 30.26 in 10.0 mi North 8.1 mph - N/A   Clear
1:53 PM 69.1 °F 43.0 °F 39% 30.26 in 10.0 mi NNW 5.8 mph - N/A   Clear
2:53 PM 71.1 °F 42.1 °F 35% 30.25 in 10.0 mi NE 10.4 mph - N/A   Clear
3:53 PM 71.1 °F 41.0 °F 34% 30.24 in 10.0 mi NNE 9.2 mph - N/A   Clear
4:53 PM 71.1 °F 43.0 °F 36% 30.24 in 10.0 mi ENE 8.1 mph - N/A   Clear
5:53 PM 70.0 °F 45.0 °F 41% 30.24 in 10.0 mi NE 6.9 mph - N/A   Clear
6:53 PM 69.1 °F 46.0 °F 44% 30.24 in 10.0 mi NNE 5.8 mph - N/A   Clear
7:53 PM 63.0 °F 46.9 °F 56% 30.24 in 10.0 mi NNE 3.5 mph - N/A   Clear
8:53 PM 60.1 °F 46.9 °F 62% 30.25 in 10.0 mi NNE 3.5 mph - N/A   Clear
9:53 PM 57.0 °F 48.0 °F 72% 30.26 in 10.0 mi North 5.8 mph - N/A   Clear
10:53 PM 55.0 °F 48.0 °F 77% 30.28 in 10.0 mi NE 4.6 mph - N/A   Clear
11:53 PM 55.9 °F 50.0 °F 80% 30.28 in 10.0 mi East 6.9 mph - N/A   Clear